Location: ???????
(55.4362°N, 38.1183°E)
Time: 03:37:18
(UTC+00:00)

USA 215 - Pass Details

Date: 17 June 2021
Orbit: 1100 x 1107 km, 123.0° (Epoch: 22 June)

Event Time Altitude Azimuth Distance (km) Brightness Sun altitude
Rises 22:30:10 0° 73° (ENE) 3,923 6.6 -10.1°
Reaches altitude 10° 22:32:38 10° 74° (ENE) 2,964 6.0 -10.0°
Maximum altitude 22:39:12 87° 347° (NNW) 1,110 3.3 -9.7°
Drops below altitude 10° 22:45:46 10° 258° (WSW) 2,959 5.2 -9.5°
Sets 22:48:14 0° 259° (WSW) 3,917 5.9 -9.3°
